Regional Weather Roundup
Issued by NWS State College, PA

Home | Current Version | Previous Version | Text Only | Print | Product List | Glossary On
Versions: 1 2 3 4 5 6 7 8 9 10 11 12 13 14 15 16 17 18 19 20 21 22 23 24 25 26 27 28 29 30 31 32 33 34 35 36 37 38 39 40 41 42 43 44 45 46 47 48 49 50
000
ASUS41 KCTP 142110
RWRCTP

REGIONAL WEATHER ROUNDUP
NATIONAL WEATHER SERVICE STATE COLLEGE PA
400 PM EST THU DEC 14 2017

Note: "fair" indicates few or no clouds below 12,000 feet with no
significant weather and/or obstructions to visibility.

* = STATION THAT DOES NOT REPORT PRECIPITATION /E.G. RAIN...SNOW...ETC/
    THUNDER OR FOG.

PAZ002>004-007>009-013>016-020>023-029>032-142200-
WESTERN PENNSYLVANIA

CITY           SKY/WX    TMP DP  RH WIND       PRES   REMARKS
ERIE           CLOUDY    24  13  62 W9        29.97F WCI  14
MEADVILLE      CLOUDY    20  11  68 W10       29.94R WCI   9
FRANKLIN*      FLURRIES  20  11  68 NW7       29.94R WCI  11
NEW CASTLE     CLOUDY    24  15  68 N5        29.99R
BEAVER COUNTY  CLOUDY    25  14  63 NW7       29.97R
BUTLER*        MOCLDY    23  11  60 VRB3      29.97
PITTSBURGH INT CLOUDY    26  12  55 NW9       29.96R
PITTSBURGH     CLEAR     23   7  50 NW6       29.96R
INDIANA*       PTCLDY    23   9  54 NW7       29.98R WCI  15
LATROBE        MOCLDY    25  10  54 NW6       29.98R
WASHINGTON CO* CLOUDY    29  15  56 W7        30.00R
$$

PAZ004>006-010>012-017>019-024>028-033>037-041-042-045-046-049>053-142200-
CENTRAL PENNSYLVANIA

CITY           SKY/WX    TMP DP  RH WIND       PRES   REMARKS
BRADFORD         N/A     16   7  67 NW12      29.85F WCI   3
DUBOIS         PTCLDY    18   5  57 NW8       29.90R WCI   8
CLEARFIELD     PTCLDY    20   6  55 NW8       29.92R WCI  10
JOHNSTOWN      CLEAR     19   7  59 NW10      29.87R WCI   7
ALTOONA        CLEAR     24   7  48 NW8       29.92R
STATE COLLEGE  CLEAR     23   7  50 NW8       29.93R WCI  14
WILLIAMSPORT   CLEAR     29   6  38 NW13      29.92R
SELINSGROVE    CLEAR     28   8  43 W7        29.95R
FT INDIANTOWN  PTCLDY    30   8  39 NW8       29.92R
CAPITAL CITY   CLEAR     32   6  33 NW13      29.95R
HARRISBURG     CLEAR     31  10  41 NW15      29.94R
YORK           CLEAR     31  13  47 NW9       29.93R
$$

PAZ038>040-043-044-047-048-054-055-060>062-067>071-142200-
EASTERN PENNSYLVANIA

CITY           SKY/WX    TMP DP  RH WIND       PRES   REMARKS
SCRANTON       CLEAR     23   6  48 NW9       29.89R WCI  13
MOUNT POCONO   CLEAR     17   4  56 NW13G21   29.79R WCI   4
ALLENTOWN      CLEAR     29   8  41 NW13G22   29.91R
QUAKERTOWN*    PTCLDY    28  10  47 NW6       29.91R
READING        CLEAR     30  13  49 NW14      29.92R
LANCASTER      CLEAR     30  12  47 NW15      29.93R
COATESVILLE    CLEAR     30  14  51 NW9G15    29.92R
POTTSTOWN      CLEAR     28  12  51 NW9       29.93R
BLUE BELL      CLEAR     30  12  47 CALM      29.93R
DOYLESTOWN     CLEAR     29  12  49 NW10G21   29.90R
WILLOW GROVE   NOT AVBL
NORTH PHILA    CLEAR     32  12  43 NW12      29.94R
PHILADELPHIA   PTCLDY    32  12  43 NW9       29.95R
$$




USA.gov is the U.S. government's official web portal to all federal, state and local government web resources and services.